TimeEDT,TemperatureF,Dew PointF,Humidity,Sea Level PressureIn,VisibilityMPH,Wind Direction,Wind SpeedMPH,Gust SpeedMPH,PrecipitationIn,Events,Conditions,WindDirDegrees,DateUTC
12:54 AM,81.0,70.0,69,29.82,8.0,West,6.9,-,N/A,,Clear,270,2013-07-20 04:54:00
1:54 AM,78.1,70.0,76,29.81,7.0,West,3.5,-,N/A,,Clear,260,2013-07-20 05:54:00
2:54 AM,77.0,68.0,74,29.79,8.0,Calm,Calm,-,N/A,,Clear,0,2013-07-20 06:54:00
3:54 AM,75.9,69.1,79,29.78,8.0,Calm,Calm,-,N/A,,Clear,0,2013-07-20 07:54:00
4:54 AM,77.0,68.0,74,29.80,9.0,Calm,Calm,-,N/A,,Mostly Cloudy,0,2013-07-20 08:54:00
5:36 AM,78.8,66.2,65,29.82,10.0,West,8.1,-,N/A,,Overcast,270,2013-07-20 09:36:00
5:54 AM,78.1,66.9,68,29.81,10.0,West,10.4,-,N/A,,Mostly Cloudy,270,2013-07-20 09:54:00
6:13 AM,78.8,66.2,65,29.82,10.0,West,10.4,-,N/A,,Mostly Cloudy,270,2013-07-20 10:13:00
6:54 AM,78.1,68.0,71,29.81,8.0,WNW,5.8,-,N/A,,Partly Cloudy,290,2013-07-20 10:54:00
7:54 AM,78.1,68.0,71,29.82,7.0,West,3.5,-,N/A,,Partly Cloudy,280,2013-07-20 11:54:00
8:54 AM,79.0,68.0,69,29.82,7.0,West,11.5,-,0.00,Rain,Light Rain,260,2013-07-20 12:54:00
9:54 AM,84.0,68.0,58,29.78,10.0,West,10.4,16.1,0.00,,Clear,270,2013-07-20 13:54:00
10:54 AM,82.9,66.9,58,29.77,10.0,WSW,8.1,-,0.00,Rain,Light Rain,250,2013-07-20 14:54:00
11:54 AM,84.9,69.1,59,29.79,10.0,West,9.2,-,0.00,,Clear,280,2013-07-20 15:54:00
12:54 PM,86.0,66.0,51,29.77,10.0,West,10.4,-,N/A,,Partly Cloudy,270,2013-07-20 16:54:00
1:54 PM,86.0,66.0,51,29.78,10.0,WSW,8.1,-,N/A,,Partly Cloudy,250,2013-07-20 17:54:00
2:54 PM,89.1,64.9,45,29.77,10.0,West,9.2,-,N/A,,Clear,270,2013-07-20 18:54:00
3:54 PM,89.1,62.1,40,29.77,10.0,West,12.7,17.3,N/A,,Scattered Clouds,280,2013-07-20 19:54:00
4:54 PM,88.0,63.0,43,29.76,10.0,WNW,5.8,-,N/A,,Mostly Cloudy,290,2013-07-20 20:54:00
5:54 PM,84.0,66.0,55,29.76,10.0,WSW,3.5,-,N/A,,Overcast,240,2013-07-20 21:54:00
6:54 PM,82.9,68.0,60,29.77,10.0,WSW,3.5,-,N/A,,Mostly Cloudy,250,2013-07-20 22:54:00
7:54 PM,82.0,64.9,56,29.78,10.0,West,5.8,-,N/A,,Scattered Clouds,260,2013-07-20 23:54:00
8:54 PM,81.0,66.0,60,29.80,10.0,West,5.8,-,N/A,,Mostly Cloudy,260,2013-07-21 00:54:00
9:54 PM,80.1,66.9,64,29.83,10.0,WSW,4.6,-,N/A,,Mostly Cloudy,250,2013-07-21 01:54:00
10:54 PM,78.1,64.9,64,29.83,10.0,West,5.8,-,N/A,,Partly Cloudy,270,2013-07-21 02:54:00
11:54 PM,75.0,66.9,76,29.86,10.0,North,5.8,-,N/A,,Scattered Clouds,350,2013-07-21 03:54:00